Tracking 18630 objects as of 25-May-2017
HD Live streaming from Space Station
objects crossing your sky now

COSMOS 374

Track COSMOS 374 now!
10-day predictions
COSMOS 374 is classified as:


NORAD ID: 4594
Int'l Code: 1970-089A
Perigee: 532.6 km
Apogee: 2,046.4 km
Inclination: 62.9 °
Period: 111.2 minutes
Semi major axis: 7660 km
RCS: 0.5589 m2 (medium)
Launch date: October 23, 1970
Source: Commonwealth of Independent States (former USSR) (CIS)
Launch site: TYURATAM MISSILE AND SPACE COMPLEX (TTMTR)
Your satellite tracking list
Your tracking list is empty





NASA's NSSDC Master Catalog

Two Line Element Set (TLE):
1  4594U 70089A   17144.77160486 -.00000018 +00000-0 +31684-4 0  9998
2  4594 062.9320 246.7165 0988033 120.5998 249.6223 12.94849434240206
Source of the keplerian elements: AFSPC